Hourly Data Report for October 22, 2015

All times are specified in Local Standard Time (LST). Add 1 hour to adjust for Daylight Saving Time where and when it is observed.

CHARLOTTETOWN A
PRINCE EDWARD ISLAND

46°17'21.000" N
63°07'09.000" W
48.50 m
8300301
71706
YYG

Download Data

Hourly Data (October 2015)
Hourly Data Report for October 22, 2015
Temp Definition
°C
Dew Point Temp Definition
°C
Rel Hum Definition
%
Wind Dir Definition
10's deg

Wind Spd Definition
km/h
Visibility Definition
km
Stn Press Definition
kPa
Hmdx Definition


Wind Chill Definition


Weather Definition


TIME
00:00 Legend Double Dagger 2.6 -2.7 68 28 5 24.1 102.24     LegendNANA
01:00 Legend Double Dagger 2.5 -2.4 70 28 7 24.1 102.24     LegendNANA
02:00 Legend Double Dagger 1.3 -2.8 74 27 7 24.1 102.24     Mostly Cloudy
03:00 Legend Double Dagger 1.7 -2.4 74 26 9 24.1 102.28     LegendNANA
04:00 Legend Double Dagger 0.0 -2.7 82 30 7 24.1 102.26   -2 LegendNANA
05:00 Legend Double Dagger -0.1 -1.9 88 28 3 24.1 102.24   -1 Mostly Cloudy
06:00 Legend Double Dagger -1.4 -2.7 91 36 3 24.1 102.29   -2 LegendNANA
07:00 Legend Double Dagger 0.1 -1.8 87 20 3 24.1 102.32     LegendNANA
08:00 Legend Double Dagger 2.3 0.7 89 15 4 24.1 102.31     Mostly Cloudy
09:00 Legend Double Dagger 4.3 1.8 84 12 6 24.1 102.32     LegendNANA
10:00 Legend Double Dagger 6.9 0.6 64 17 16 24.1 102.22     LegendNANA
11:00 Legend Double Dagger 7.5 -0.2 58 16 24 24.1 102.08     Cloudy
12:00 Legend Double Dagger 7.9 0.9 61 16 26 24.1 101.96     LegendNANA
13:00 Legend Double Dagger 7.8 2.5 69 17 26 24.1 101.82     LegendNANA
14:00 Legend Double Dagger 8.0 4.1 76 15 19 24.1 101.70     Cloudy
15:00 Legend Double Dagger 8.2 5.3 82 15 28 16.1 101.53     Rain Showers
16:00 Legend Double Dagger 8.1 6.6 90 15 25 24.1 101.39     Rain Showers
17:00 Legend Double Dagger 9.0 7.3 89 15 33 19.3 101.25     Cloudy
18:00 Legend Double Dagger 9.5 8.3 92 15 29 19.3 101.14     Rain Showers
19:00 Legend Double Dagger 10.2 9.0 92 16 23 16.1 101.08     Rain Showers
20:00 Legend Double Dagger 10.6 9.5 93 16 28 19.3 100.90     Rain Showers
21:00 Legend Double Dagger 11.2 10.0 92 16 30 24.1 100.79     Rain Showers
22:00 Legend Double Dagger 11.2 10.4 95 16 25 19.3 100.72     Rain Showers
23:00 Legend Double Dagger 11.6 11.3 98 16 21 16.1 100.50     Rain Showers

Notes on Data Quality.

Legend

  • E = Estimated
  • M = Missing
  • NA = Not Available
  • ‡ = Partner data that is not subject to review by the National Climate Archives
Date modified: